MPEC 2004-B08 : 2004 BV1

The following Minor Planet Electronic Circular may be linked-to from your own Web pages, but must not otherwise be redistributed electronically.


Read MPEC 2004-B07 Read MPEC 2004-B09


M.P.E.C. 2004-B08                                Issued 2004 Jan. 18, 12:29 UT

     The Minor Planet Electronic Circulars contain information on unusual
         minor planets and routine data on comets.  They are published
   on behalf of Commission 20 of the International Astronomical Union by the
          Minor Planet Center, Smithsonian Astrophysical Observatory,
                          Cambridge, MA 02138, U.S.A.

         Supported in part by the Steven and Michele Kirsch Foundation
             Prepared using the Tamkin Foundation Computer Network

                              MPC@CFA.HARVARD.EDU
          URL http://cfa-www.harvard.edu/iau/mpc.html  ISSN 1523-6714

                                   2004 BV1

Observations:
     K04B01V* C2004 01 16.10427 06 15 23.27 +27 05 13.5          21.9 V EB008691
     K04B01V  C2004 01 16.13105 06 15 20.61 +27 05 26.8          22.2 V EB008691
     K04B01V  C2004 01 16.16186 06 15 17.57 +27 05 41.5          21.4 V EB008691
     K04B01V HC2004 01 17.17940 06 13 41.87 +27 13 34.9                 EB008691
     K04B01V HC2004 01 17.18312 06 13 41.48 +27 13 36.4                 EB008691
     K04B01V HC2004 01 17.18683 06 13 41.13 +27 13 37.9                 EB008691
     K04B01V HC2004 01 18.16607 06 12 12.30 +27 20 56.3                 EB008691
     K04B01V HC2004 01 18.17003 06 12 11.91 +27 20 58.5                 EB008691
     K04B01V HC2004 01 18.17483 06 12 11.47 +27 21 00.5                 EB008691
     K04B01V  C2004 01 18.21367 06 12 07.87 +27 21 19.1          20.8 R EB008651
     K04B01V  C2004 01 18.21867 06 12 07.38 +27 21 21.0          21.8 R EB008651
     K04B01V  C2004 01 18.22235 06 12 07.07 +27 21 22.1          21.5 R EB008651
     K04B01V  C2004 01 18.22488 06 12 06.80 +27 21 24.2          21.0 R EB008651

Observer details:
651 Grasslands Observatory, Tucson.  Observer J. E. McGaha.  0.62-m f/5.1
    Newtonian + CCD.
691 Steward Observatory, Kitt Peak.  Observers A. E. Gleason, M. Block.  0.9-m
    f/3 reflector + CCD.

Orbital elements:
2004 BV1                                                             PHA 0.041D
Epoch 2004 Jan. 16.0 TT = JDT 2453020.5                 MPC
M 123.52118              (2000.0)            P               Q
n   0.56945298     Peri.  220.94083     +0.72549708     +0.66054943
a   1.4415536      Node    96.61438     -0.56981480     +0.73395374
e   0.3210778      Incl.   11.21553     -0.38595996     +0.15807075
P   1.73           H   20.1           G   0.15
From 13 observations 2004 Jan. 16-18.

Ephemeris:
2004 BV1                 a,e,i = 1.44, 0.32, 11                  q = 0.9787
Date    TT    R. A. (2000) Decl.     Delta      r     Elong.  Phase     V
2004 01 16    06 15.55   +27 04.4    0.825    1.776   158.0    12.0    21.7
2004 01 26    06 02.32   +28 11.1    0.903    1.800   144.9    18.3    22.1
2004 02 05    05 55.05   +28 57.2    1.000    1.822   133.2    23.2    22.5
2004 02 15    05 53.44   +29 29.4    1.109    1.842   122.8    26.8    22.9
2004 02 25    05 56.74   +29 52.0    1.228    1.859   113.5    29.2    23.2

Timothy B. Spahr             (C) Copyright 2004 MPC           M.P.E.C. 2004-B08

Read MPEC 2004-B07 Read MPEC 2004-B09


Our Web policy. Index to the CBAT/MPC/ICQ pages.

MPC